Weather Service Report


990 
ASUS44 KSJT 272210
RWRSJT
WEST CENTRAL TEXAS REGIONAL WEATHER ROUNDUP
NATIONAL WEATHER SERVICE SAN ANGELO TX
400 PM CST MON FEB 27 2017

NOTE: "FAIR" INDICATES FEW OR NO CLOUDS BELOW 12,000 FEET WITH NO
SIGNIFICANT WEATHER AND/OR OBSTRUCTIONS TO VISIBILITY.

TXZ049-054-064>066-071>073-076>078-098-099-113-114-127-128-139-140-
154-155-168>170-272300
...LOCATIONS ACROSS WEST CENTRAL TEXAS...
  
CITY           SKY/WX    TMP DP  RH WIND       PRES   REMARKS
SAN ANGELO     SUNNY     83  37  19 S15G23    29.83F                  
ABILENE        MOSUNNY   77  47  34 SW13      29.84F                  
DYESS AFB      MOSUNNY   79  46  31 W14G25    29.82F                  
JUNCTION       SUNNY     82  46  28 SW7       29.86F                  
SWEETWATER     SUNNY     80  27  14 S21G28    29.86F                  
BROWNWOOD      SUNNY     77  57  50 S12       29.85F                  
COLEMAN        PTCLDY    80  51  36 S13G21    29.85F                  
SONORA         SUNNY     81  37  21 SW9       29.91F                  
OZONA          FAIR      81  34  18 MISG      29.89F                  
BRADY          NOT AVBL                                               
$$

TEXAS PANHANDLE/OKLAHOMA PANHANDLE
  
CITY           SKY/WX    TMP DP  RH WIND       PRES   REMARKS
AMARILLO       SUNNY     71  17  12 SW21G31   29.77F                  
BORGER         SUNNY     71  17  12 SW23G35   29.73F                  
CANADIAN       SUNNY     75  20  12 SW21G30   29.71F                  
DALHART        SUNNY     70  15  12 SW33      29.70F                  
DUMAS          CLEAR     68  19  15 SW26G33   29.73F                  
GUYMON         NOT AVBL                                               
HEREFORD       CLEAR     70  18  13 W23G31    29.80S                  
PAMPA          CLEAR     72  19  13 W22G29    29.75F                  
PERRYTON       CLOUDY    72  20  14 SW32      29.70F                  
$$

SOUTHERN PANHANDLE/SOUTH PLAINS/ROLLING PLAINS
  
CITY           SKY/WX    TMP DP  RH WIND       PRES   REMARKS
LUBBOCK        PTSUNNY   75  16  10 SW22G37   29.80F                  
SNYDER         SUNNY     78  24  13 SW17G24   29.83F                  
CHILDRESS      SUNNY     79  22  12 SW23G31   29.76F                  
SEMINOLE       CLEAR     73  22  14 SW18G25   29.85F                  
$$

PERMIAN BASIN
  
CITY           SKY/WX    TMP DP  RH WIND       PRES   REMARKS
MIDLAND        SUNNY     80  18  10 W18G26    29.84F                  
ODESSA         SUNNY     79  18  10 W20G25    29.85F                  
WINK           SUNNY     77  18  11 W17       29.83F                  
$$

FAR WEST/SOUTHWEST MOUNTAINS/TRANS PECOS
  
CITY           SKY/WX    TMP DP  RH WIND       PRES   REMARKS
ALPINE         PTCLDY    75  16  11 W20       29.99F                  
DRYDEN           N/A     85  23  10 SW20      29.83F                  
EL PASO        PTSUNNY   69  22  16 SW9       29.91F                  
FORT STOCKTON  SUNNY     83  14   7 W10       29.86F                  
GUADALUPE PASS SUNNY     63  20  19 W44G54    29.92S                  
MARFA          NOT AVBL                                               
PECOS          CLEAR     79  18  10 SW18G26   29.84F                  
$$

DALLAS/FORT WORTH METROPLEX
  
CITY           SKY/WX    TMP DP  RH WIND       PRES   REMARKS
DFW AIRPORT    PTSUNNY   79  63  57 S20       29.84F                  
FTW MEACHAM    PTSUNNY   79  61  53 S16G24    29.84F                  
DAL-EXECUTIVE  MOSUNNY   79  63  57 S14G23    29.85F                  
GRAND PRAIRIE  MOSUNNY   75  63  64 S12G21    29.87F                  
ADDISON        MOSUNNY   77  63  61 S12       29.86F                  
MESQUITE       MOCLDY    77  63  61 SE9       29.86F                  
LANCASTER      PTCLDY    78  64  62 S15       29.87F                  
$$

NORTH CENTRAL TEXAS
  
CITY           SKY/WX    TMP DP  RH WIND       PRES   REMARKS
SHRMAN/DENISON MOCLDY    73  63  71 S16G23    29.86F                  
GAINESVILLE    PTSUNNY   74  62  66 S17G24    29.86S                  
BRIDGEPORT     PTCLDY    78  61  54 S15       29.85F                  
DENTON         CLOUDY    77  63  61 S16       29.84F                  
WAXAHACHIE     PTCLDY    76  64  66 S15       29.87F                  
GRANBURY       PTCLDY    80  62  54 S10       29.85F                  
$$

WESTERN NORTH TEXAS
  
CITY           SKY/WX    TMP DP  RH WIND       PRES   REMARKS
WICHITA FALLS  MOSUNNY   80  48  32 SW15G25   29.78F                  
VERNON         CLEAR     80  28  14 SW15G24   29.78F                  
BRECKENRIDGE   CLEAR     81  49  32 SW13G20   29.81F                  
COMANCHE       SUNNY     78  61  55 S10G20    29.86F                  
$$

CENTRAL AND SOUTH CENTRAL TEXAS
  
CITY           SKY/WX    TMP DP  RH WIND       PRES   REMARKS
AUSTIN/BERGSTM MOSUNNY   81  65  58 S10       29.87F                  
WACO           PTSUNNY   78  65  63 S13       29.86F                  
HILLSBORO      MOCLDY    79  64  60 S16G22    29.87F                  
TEMPLE         MOSUNNY   79  66  64 S13       29.89S                  
KILLEEN-GRAY   MOSUNNY   76  62  62 SE14      29.86F                  
FORT HOOD      MOSUNNY   78  63  59 S12       29.85F                  
GEORGETOWN     PTSUNNY   81  63  54 S14       29.88F                  
LAGO VISTA     MOCLDY    79  64  59 S6        29.90F                  
SAN MARCOS     PTSUNNY   81  64  57 S13       29.89F                  
NEW BRAUNFELS  PTSUNNY   80  65  59 S13       29.87F                  
RANDOLPH AFB   MOSUNNY   80  64  59 S9        29.87F                  
SAN ANTONIO    PTSUNNY   78  63  59 S8        29.88F                  
STINSON        MOSUNNY   82  63  52 SE5       29.85F                  
PLEASANTON     NOT AVBL                                               
LA GRANGE      PTSUNNY   83  67  58 S12       29.87S                  
GIDDINGS       PTCLDY    81  63  54 S9        29.89F                  
$$

EAST TEXAS
  
CITY           SKY/WX    TMP DP  RH WIND       PRES   REMARKS
PARIS          CLOUDY    63  59  88 SE13      29.91F                  
CLARKSVILLE    NOT AVBL                                               
TYLER          PTSUNNY   81  60  48 S16       29.88F                  
LONGVIEW       PTSUNNY   80  63  55 S14       29.90F                  
PALESTINE      PTCLDY    81  62  52 SE7       29.90F                  
NACOGDOCHES    MOSUNNY   82  63  51 S12       29.90F                  
$$

TEXAS HILL COUNTRY AND EDWARDS PLATEAU
  
CITY           SKY/WX    TMP DP  RH WIND       PRES   REMARKS
LLANO          CLEAR     81  61  50 S3        29.89F                  
HORSESHOE BAY    N/A     81  60  49 S8        29.88F                  
KERRVILLE      SUNNY     79  64  60 SE9       29.90F                  
FREDERICKSBRG  MOSUNNY   77  57  49 SW9       29.89F                  
ROCKSPRINGS    CLEAR     81  43  26 SW7       29.91F                  
HONDO          SUNNY     81  62  52 SE8       29.88F                  
UVALDE         CLEAR     81  62  52 CALM      29.86F                  
DEL RIO        SUNNY     84  43  23 E8        29.82F                  
$$

SOUTHEAST TEXAS
  
CITY           SKY/WX    TMP DP  RH WIND       PRES   REMARKS
COLLEGE STN    PTSUNNY   84  64  50 S15G25    29.88S                  
CALDWELL       NOT AVBL                                               
CROCKETT       PTCLDY    81  64  57 SE10G16   29.93S                  
BRENHAM        SUNNY     83  66  56 S13       29.89S                  
HUNTSVILLE     MOSUNNY   82  62  50 S10       29.90F                  
CONROE         PTSUNNY   81  67  62 S15G22    29.92S                  
HOUSTON BUSH   PTSUNNY   82  68  62 S17       29.92F                  
HOUSTON HOBBY  PTSUNNY   77  69  76 SE12      29.93S                  
PERLAND        CLOUDY    80  69  69 S13G18    29.95S                  
WHARTON        PTCLDY    81  65  59 SE16      29.91F                  
$$

THE UPPER TEXAS COAST
  
CITY           SKY/WX    TMP DP  RH WIND       PRES   REMARKS
ORANGE         CLOUDY    78  70  76 S10G17    29.99F                  
PORT ARTHUR    PTSUNNY   79  68  69 S14       29.96F                  
GALVESTON      MOSUNNY   74  70  87 SE17      29.96F                  
ANGLETON       CLOUDY    78  71  79 SE16      29.93F                  
BAY CITY       CLOUDY    78  71  78 SE12      29.92F                  
$$

TEXAS COASTAL BEND, RIO GRANDE PLAINS DEEP SOUTH TEXAS
  
CITY           SKY/WX    TMP DP  RH WIND       PRES   REMARKS
VICTORIA       MOSUNNY   81  65  58 S20       29.89F                  
BEEVILLE       MOCLDY    83  68  61 SE12      29.87F                  
ROCKPORT       SUNNY     79  70  74 SE13      29.89F                  
PORT ARANSAS   CLEAR     75  70  84 SE10      29.89S                  
PORT LAVACA    PTCLDY    80  71  73 S13       29.90S                  
CORPUS CHRISTI MOSUNNY   83  69  62 SE18      29.87S                  
KINGSVILLE NAS PTSUNNY   85  70  60 SE15      29.85F                  
COTULLA        SUNNY     90  57  32 VRB5      29.83F                  
LAREDO         SUNNY     90  51  26 CALM      29.82F                  
BROWNSVILLE    MOSUNNY   84  69  60 SE17G25   29.86F                  
PORT ISABEL    MOSUNNY   83  69  62 S20G26    29.85F                  
HEBBRONVILLE   PTCLDY    85  61  44 E7        29.86S                  
MCALLEN        SUNNY     92  66  42 SE14G23   29.82F                  
WESLACO        CLOUDY    87  68  52 SE13G21   29.82F                  
FALFURRIAS     PTCLDY    87  64  46 SE10      29.83F                  
EDINBURG       PTCLDY    90  64  42 SE9       29.83S                  
$$
  

Return to Home page


Western Regional Climate Center, wrcc@dri.edu